Linton-On-Ouse, United Kingdom

1:54 PM BST on July 21, 2017 (GMT +0100)
Linton-On-Ouse Air Base

Weather History for EGXU - December, 2012

Change the Weather History Date:

Sunday, December 30, 2012

  Actual Average Record
Temperature  
Mean Temperature 44 °F -  
Max Temperature 51 °F 41 °F - ()
Min Temperature 37 °F 34 °F - ()
Degree Days  
Heating Degree Days 21    
Moisture  
Dew Point 39 °F    
Average Humidity 82    
Maximum Humidity 93    
Minimum Humidity 69    
Precipitation  
Precipitation 0.20 in - - ()
Sea Level Pressure  
Sea Level Pressure 29.53 in    
Wind  
Wind Speed 16 mph ()    
Max Wind Speed 24 mph    
Max Gust Speed 48 mph    
Visibility 7.3 miles    
Events      
T = Trace of Precipitation, MM = Missing Value Source: Averaged Metar Reports

Daily Weather History Graph

Daily Weather History Graph

Search for Another Location

Airport or City:

Trip Planner

Search our weather history database for the weather conditions in past years. The results will help you decide how hot, cold, wet, or windy it might be!

Date:

Astronomy

Dec. 30, 2012 Rise Set
Actual Time 8:24 AM GMT 3:51 PM GMT
Civil Twilight 7:40 AM GMT 4:34 PM GMT
Nautical Twilight 6:54 AM GMT 5:20 PM GMT
Astronomical Twilight 6:11 AM GMT 6:04 PM GMT
Moon 6:31 PM GMT (12/30) 9:03 AM GMT (12/30)
Length of Visible Light 8h 54m
Length of Day
7h 26m
Waning Gibbous, 96% of the Moon is Illuminated
Dec 30
Waning Gibbous
Jan 5
Last Quarter
Jan 11
New
Jan 18
First Quarter
Jan 27
Full

Hourly Weather History & Observations

Time (GMT) Temp. Windchill Dew Point Humidity Pressure Visibility Wind Dir Wind Speed Gust Speed Precip Events Conditions
12:50 AM 41.0 °F 33.5 °F 35.6 °F 81% 29.42 in 6.2 mi SW 13.8 mph - N/A   Partly Cloudy
1:50 AM 41.0 °F 33.1 °F 37.4 °F 87% 29.42 in 6.2 mi WSW 15.0 mph - N/A   Mostly Cloudy
2:50 AM 41 °F - 35 °F 71% 29.44 in 22 mi SW 15.0 mph - -   Scattered Clouds
2:50 AM 41.0 °F 33.1 °F 35.6 °F 81% 29.42 in 6.2 mi SW 15.0 mph - N/A   Partly Cloudy
3:50 AM 41.0 °F 32.5 °F 33.8 °F 76% 29.44 in 6.2 mi SW 17.3 mph 28.8 mph N/A   Partly Cloudy
4:50 AM 39.2 °F 29.6 °F 33.8 °F 81% 29.44 in 6.2 mi SW 19.6 mph - N/A   Mostly Cloudy
5:50 AM 37 °F - 35 °F 90% 29.48 in 9 mi SW 15.0 mph - -   Mostly Cloudy
6:50 AM 39.2 °F 29.6 °F 33.8 °F 81% 29.47 in 6.2 mi West 19.6 mph - N/A   Partly Cloudy
7:50 AM 39.2 °F 30.5 °F 33.8 °F 81% 29.50 in 6.2 mi WSW 16.1 mph - N/A   Partly Cloudy
8:50 AM 39 °F - 35 °F 81% 29.55 in 28 mi SW 18.4 mph - -   Scattered Clouds
8:50 AM 39.2 °F 29.8 °F 35.6 °F 87% 29.53 in 6.2 mi SW 18.4 mph - N/A   Partly Cloudy
9:50 AM 39.2 °F 29.0 °F 37.4 °F 93% 29.56 in 6.2 mi WSW 21.9 mph 33.4 mph N/A   Partly Cloudy
11:50 AM 42 °F - 38 °F 81% 29.60 in 2 mi SW 21.9 mph - -   Scattered Clouds
11:50 AM 41.0 °F 31.4 °F 37.4 °F 87% 29.59 in 1.9 mi SW 21.9 mph 48.3 mph N/A   Mostly Cloudy
12:50 PM 42.8 °F 34.3 °F 39.2 °F 87% 29.59 in 6.2 mi WSW 19.6 mph - N/A   Scattered Clouds
1:50 PM 42.8 °F 34.5 °F 39.2 °F 87% 29.59 in 5.6 mi West 18.4 mph 29.9 mph N/A   Scattered Clouds
2:50 PM 44 °F - 39 °F 78% 29.60 in 19 mi WSW 19.6 mph - -   Partly Cloudy
2:50 PM 44.6 °F 36.6 °F 39.2 °F 81% 29.59 in 6.2 mi WSW 19.6 mph - N/A   Mostly Cloudy
3:50 PM 44.6 °F 36.4 °F 39.2 °F 81% 29.59 in 6.2 mi WSW 20.7 mph - N/A   Scattered Clouds
4:50 PM 46.4 °F 39.2 °F 39.2 °F 76% 29.59 in 6.2 mi WSW 18.4 mph - N/A   Mostly Cloudy
5:50 PM 46 °F - 39 °F 69% 29.58 in 19 mi SW 17.3 mph - -   Partly Cloudy
5:50 PM 46.4 °F 39.5 °F 39.2 °F 76% 29.56 in 6.2 mi SW 17.3 mph - N/A   Scattered Clouds
6:50 PM 46.4 °F 39.8 °F 41.0 °F 81% 29.56 in 6.2 mi SW 16.1 mph - N/A   Scattered Clouds
7:50 PM 48.2 °F - 44.6 °F 87% 29.53 in 6.2 mi SW 24.2 mph 36.8 mph N/A   Mostly Cloudy
8:50 PM 49 °F - 45 °F 81% 29.53 in 17 mi SW 23.0 mph - -   Scattered Clouds
8:50 PM 48.2 °F - 44.6 °F 87% 29.50 in 6.2 mi SW 23.0 mph - N/A   Scattered Clouds
9:50 PM 50.0 °F - 46.4 °F 87% 29.53 in 6.2 mi SW 17.3 mph - N/A   Mostly Cloudy
10:50 PM 50.0 °F - 46.4 °F 87% 29.53 in 6.2 mi SSW 18.4 mph - N/A   Mostly Cloudy
11:50 PM 51 °F - 46 °F 77% 29.54 in 34 mi SW 17.3 mph - -   Mostly Cloudy
11:50 PM 51.8 °F - 46.4 °F 82% 29.53 in 6.2 mi SW 17.3 mph - N/A   Mostly Cloudy